EN

Hourly Weather Alipur

Today, 20 January, Wednesday

Time Temperature Precipitation Wind Pressure Humidity
00:00 +15°C° 0 mm 2 mps 741 mmHg 58%
01:00 +15°C° 0 mm 2 mps 740 mmHg 56%
02:00 +14°C° 0 mm 2 mps 740 mmHg 55%
03:00 +13°C° 0 mm 3 mps 740 mmHg 55%
04:00 +12°C° 0 mm 3 mps 740 mmHg 55%
05:00 +13°C° 0 mm 2 mps 740 mmHg 53%
06:00 +12°C° 0 mm 3 mps 740 mmHg 53%
07:00 +12°C° 0 mm 3 mps 741 mmHg 52%
08:00 +13°C° 0 mm 3 mps 741 mmHg 52%
09:00 +16°C° 0 mm 3 mps 742 mmHg 47%
10:00 +18°C° 0 mm 4 mps 742 mmHg 41%
11:00 +21°C° 0 mm 4 mps 742 mmHg 36%
12:00 +22°C° 0 mm 4 mps 741 mmHg 33%
13:00 +23°C° 0 mm 5 mps 741 mmHg 30%
14:00 +25°C° 0 mm 5 mps 740 mmHg 27%
15:00 +23°C° 0 mm 4 mps 740 mmHg 31%
16:00 +22°C° 0 mm 4 mps 740 mmHg 34%
17:00 +21°C° 0 mm 3 mps 740 mmHg 37%
18:00 +20°C° 0 mm 3 mps 740 mmHg 38%
19:00 +19°C° 0 mm 3 mps 740 mmHg 39%
20:00 +18°C° 0 mm 3 mps 741 mmHg 39%
21:00 +17°C° 0 mm 3 mps 741 mmHg 39%
22:00 +16°C° 0 mm 3 mps 741 mmHg 39%
23:00 +16°C° 0 mm 3 mps 741 mmHg 38%

Tomorrow, 21 January, Thursday

Time Temperature Precipitation Wind Pressure Humidity
00:00 +14°C° 0 mm 3 mps 740 mmHg 38%
01:00 +14°C° 0 mm 3 mps 740 mmHg 38%
02:00 +13°C° 0 mm 4 mps 739 mmHg 38%
03:00 +13°C° 0 mm 4 mps 739 mmHg 38%
04:00 +13°C° 0 mm 4 mps 739 mmHg 38%
05:00 +13°C° 0 mm 4 mps 739 mmHg 37%
06:00 +13°C° 0 mm 4 mps 740 mmHg 37%
07:00 +13°C° 0 mm 4 mps 740 mmHg 37%
08:00 +13°C° 0 mm 4 mps 740 mmHg 37%
09:00 +17°C° 0 mm 4 mps 741 mmHg 33%
10:00 +19°C° 0 mm 5 mps 741 mmHg 30%
11:00 +22°C° 0 mm 5 mps 742 mmHg 26%
12:00 +23°C° 0 mm 5 mps 741 mmHg 24%
13:00 +25°C° 0 mm 5 mps 740 mmHg 23%
14:00 +26°C° 0 mm 5 mps 740 mmHg 21%
15:00 +23°C° 0 mm 4 mps 740 mmHg 24%
16:00 +22°C° 0 mm 3 mps 739 mmHg 27%
17:00 +21°C° 0 mm 2 mps 739 mmHg 31%
18:00 +20°C° 0 mm 2 mps 740 mmHg 32%
19:00 +18°C° 0 mm 2 mps 740 mmHg 33%
20:00 +18°C° 0 mm 1 mps 740 mmHg 33%
21:00 +16°C° 0 mm 1 mps 741 mmHg 33%
22:00 +16°C° 0 mm 1 mps 741 mmHg 33%
23:00 +15°C° 0 mm 1 mps 741 mmHg 33%

Day after tomorrow, 22 January, Friday

Time Temperature Precipitation Wind Pressure Humidity
00:00 +15°C° 0 mm 1 mps 741 mmHg 33%
01:00 +14°C° 0 mm 1 mps 741 mmHg 34%
02:00 +13°C° 0 mm 0 mps 741 mmHg 34%
03:00 +12°C° 0 mm 0 mps 741 mmHg 34%
04:00 +12°C° 0 mm 0 mps 740 mmHg 34%
05:00 +12°C° 0 mm 0 mps 740 mmHg 34%
06:00 +13°C° 0 mm 0 mps 741 mmHg 35%
07:00 +14°C° 0 mm 1 mps 741 mmHg 35%
08:00 +15°C° 0 mm 1 mps 742 mmHg 36%
09:00 +18°C° 0 mm 1 mps 742 mmHg 32%
10:00 +20°C° 0 mm 1 mps 742 mmHg 28%
11:00 +23°C° 0 mm 1 mps 742 mmHg 23%
12:00 +24°C° 0 mm 1 mps 742 mmHg 22%
13:00 +25°C° 0 mm 1 mps 741 mmHg 20%
14:00 +26°C° 0 mm 1 mps 741 mmHg 19%
15:00 +25°C° 0 mm 1 mps 740 mmHg 22%
16:00 +24°C° 0 mm 1 mps 740 mmHg 24%
17:00 +22°C° 0 mm 1 mps 739 mmHg 27%
18:00 +22°C° 0 mm 1 mps 740 mmHg 29%
19:00 +21°C° 0 mm 1 mps 740 mmHg 31%
20:00 +19°C° 0 mm 2 mps 741 mmHg 34%
21:00 +18°C° 0 mm 2 mps 741 mmHg 36%
22:00 +18°C° 0 mm 2 mps 741 mmHg 38%
23:00 +17°C° 0 mm 2 mps 740 mmHg 40%

23 January, Saturday

Time Temperature Precipitation Wind Pressure Humidity
00:00 +17°C° 0 mm 2 mps 740 mmHg 40%
01:00 +16°C° 0 mm 3 mps 740 mmHg 41%
02:00 +16°C° 0 mm 3 mps 740 mmHg 42%
03:00 +14°C° 0 mm 3 mps 739 mmHg 42%
04:00 +14°C° 0 mm 3 mps 739 mmHg 42%
05:00 +14°C° 0 mm 3 mps 738 mmHg 42%
06:00 +14°C° 0 mm 3 mps 739 mmHg 41%
07:00 +14°C° 0 mm 4 mps 739 mmHg 41%
08:00 +14°C° 0 mm 4 mps 739 mmHg 40%
09:00 +17°C° 0 mm 4 mps 740 mmHg 37%
10:00 +19°C° 0 mm 5 mps 740 mmHg 34%
11:00 +21°C° 0 mm 5 mps 740 mmHg 31%
12:00 +22°C° 0 mm 5 mps 739 mmHg 30%
13:00 +23°C° 0 mm 6 mps 738 mmHg 30%
14:00 +24°C° 0 mm 6 mps 738 mmHg 30%
15:00 +23°C° 0 mm 5 mps 737 mmHg 33%
16:00 +23°C° 0 mm 5 mps 737 mmHg 36%
17:00 +22°C° 0 mm 4 mps 737 mmHg 39%
18:00 +21°C° 0 mm 4 mps 737 mmHg 41%
19:00 +20°C° 0 mm 4 mps 738 mmHg 43%
20:00 +19°C° 0 mm 4 mps 738 mmHg 44%
21:00 +19°C° 0 mm 3 mps 738 mmHg 46%
22:00 +18°C° 0 mm 3 mps 739 mmHg 48%
23:00 +17°C° 0 mm 2 mps 739 mmHg 49%

24 January, Sunday

Time Temperature Precipitation Wind Pressure Humidity
00:00 +17°C° 0 mm 2 mps 739 mmHg 52%
01:00 +16°C° 0 mm 1 mps 739 mmHg 54%
02:00 +15°C° 0 mm 1 mps 739 mmHg 57%
03:00 +15°C° 0 mm 1 mps 739 mmHg 59%
04:00 +14°C° 0 mm 1 mps 739 mmHg 61%
05:00 +14°C° 0 mm 1 mps 739 mmHg 63%
06:00 +14°C° 0 mm 1 mps 740 mmHg 62%
07:00 +14°C° 0 mm 1 mps 740 mmHg 62%
08:00 +14°C° 0 mm 1 mps 741 mmHg 61%
09:00 +16°C° 0 mm 1 mps 741 mmHg 55%
10:00 +19°C° 0 mm 1 mps 741 mmHg 49%
11:00 +21°C° 0 mm 1 mps 742 mmHg 43%
12:00 +22°C° 0 mm 1 mps 741 mmHg 40%
13:00 +23°C° 0 mm 2 mps 741 mmHg 37%
14:00 +24°C° 0 mm 2 mps 740 mmHg 34%
15:00 +22°C° 0 mm 3 mps 740 mmHg 36%
16:00 +21°C° 0 mm 3 mps 740 mmHg 37%
17:00 +20°C° 0 mm 3 mps 740 mmHg 38%
18:00 +19°C° 0 mm 3 mps 740 mmHg 36%
19:00 +18°C° 0 mm 3 mps 741 mmHg 34%
20:00 +16°C° 0 mm 3 mps 742 mmHg 32%
21:00 +16°C° 0 mm 3 mps 742 mmHg 34%
22:00 +14°C° 0 mm 3 mps 742 mmHg 36%
23:00 +14°C° 0 mm 2 mps 742 mmHg 38%

25 January, Monday

Time Temperature Precipitation Wind Pressure Humidity
00:00 +14°C° 0 mm 2 mps 742 mmHg 40%
01:00 +13°C° 0 mm 2 mps 742 mmHg 42%
02:00 +13°C° 0 mm 2 mps 741 mmHg 44%
03:00 +13°C° 0 mm 2 mps 741 mmHg 44%
04:00 +12°C° 0 mm 2 mps 741 mmHg 45%
05:00 +12°C° 0 mm 2 mps 741 mmHg 45%
06:00 +12°C° 0 mm 2 mps 741 mmHg 45%
07:00 +13°C° 0 mm 2 mps 742 mmHg 44%
08:00 +13°C° 0 mm 2 mps 742 mmHg 43%
09:00 +15°C° 0 mm 2 mps 743 mmHg 39%
10:00 +17°C° 0 mm 2 mps 743 mmHg 35%
11:00 +20°C° 0 mm 2 mps 743 mmHg 31%
12:00 +21°C° 0 mm 2 mps 743 mmHg 30%
13:00 +23°C° 0 mm 2 mps 742 mmHg 29%
14:00 +24°C° 0 mm 2 mps 741 mmHg 29%
15:00 +23°C° 0 mm 2 mps 741 mmHg 31%
16:00 +21°C° 0 mm 2 mps 741 mmHg 32%
17:00 +20°C° 0 mm 2 mps 741 mmHg 34%
18:00 +19°C° 0 mm 2 mps 741 mmHg 35%
19:00 +18°C° 0 mm 2 mps 742 mmHg 36%
20:00 +16°C° 0 mm 2 mps 742 mmHg 36%
21:00 +16°C° 0 mm 2 mps 742 mmHg 38%
22:00 +15°C° 0 mm 2 mps 742 mmHg 41%
23:00 +14°C° 0 mm 2 mps 742 mmHg 43%
Show more